Simultaneous Nadir Overpasses (SNOs) Predictions

Prediction of SNOs between METOP-B and NOAA-19 Satellite Orbit:

Table of predicted SNOs for the next 14.0 days since TLE Epoch: 3/3/2017
Index Date (METOP-B) Time (METOP-B) Lat,Lon (METOP-B) SZA (METOP-B ) Date (NOAA-19) Time (NOAA-19) Lat,Lon (NOAA-19) SZA (NOAA-19 ) Distance(km) Time Diff (sec)
1 03/09/2017 21:07:35 76.91,-133.13 81.01 03/09/2017 21:06:26 76.89,-133.05 80.98 3.26 69
2 03/09/2017 21:58:16 -76.93, 34.25 99.00 03/09/2017 21:57:22 -76.93, 34.08 99.00 4.37 54
3 03/09/2017 22:48:57 76.90,-158.54 80.96 03/09/2017 22:48:28 76.90,-158.61 80.97 1.86 29
4 03/09/2017 23:39:39 -76.86, 8.66 99.09 03/09/2017 23:39:23 -76.90, 8.70 99.06 3.62 16
5 03/10/2017 00:30:19 76.88, 176.05 80.91 03/10/2017 00:30:29 76.87, 176.02 80.91 0.85 10
6
